"Pseudo-MPEC" for A11DpxB

Created 2026 Jun 17 18:35:03 UT using Find_Orb

Click here for an explanation of pseudo-MPECs

 
 Astrometry: 
     A11DpxB*0C2026 06 12.35505814 45 59.239-29 24 06.95   ~6CIo 16.83oVNEOCPT05
     A11DpxB 0C2026 06 12.35833514 45 07.985-29 17 55.36   ~6CIo 16.42oVNEOCPT05
     A11DpxB 0C2026 06 12.36384414 43 41.945-29 07 25.18   ~6CIo 16.48oVNEOCPT05
     A11DpxB 0C2026 06 12.37756214 40 10.886-28 41 10.57   ~6CIo 16.50oVNEOCPT05

Station data:
(T05) ATLAS-HKO, Haleakala  (N20.707551 W156.257010)  US/Hawaii.  Observers
   L. Denneau, R. Siverd, J. Tonry, H. Weiland. Measurers L. Denneau, N.
   Erasmus, A. Fitzsimmons, J. Robinson, R. Siverd, J. Tonry, H. Weiland.
   0.5-m f/2.0 Schmidt + CCD.

Orbital elements:  A11DpxB
   Perihelion 2026 Aug 24.960242 +/- 88.1 TT = 23:02:44.8 (JD 2461277.460242)
Epoch 2026 Jun 12.0 TT = JDT 2461203.5   Earth MOID: 0.0008   Ve: 0.0737
M 215.941967194 +/- 47              Me: 0.0889                   AutoNEOCP
n   1.947776666 +/- 0.533           Peri.  169.170891 +/- 47
a   0.635004217 +/- 0.116           Node   261.401171 +/- 1.8
e   0.65761712 +/- 0.265            Incl.    8.274180 +/- 80
P   0.506/184.823d         H 26.12  G  0.15   U 12.4  SR
q 0.217414568 +/- 0.303    Q 1.052593867 +/- 0.0693       (J2000 ecliptic)
From 4 observations 2026 June 12 (32.4 min); mean residual 1".97
Residuals in arcseconds: 
260612 T05  2.1+  .59-    260612 T05  4.3-  1.9+    
260612 T05  .65+  .67-    260612 T05  1.6+  .66-    

Ephemerides (geocentric):
Date (UTC) HH   RA             Dec           delta  r     elong  mag " sig PA
---- --------  ------------   ------------  ------ ------ -----  --- --------
2026 06 17 19  10 35 39.280   +17 55 48.54  .04373 1.0003  67.8 23.5 532'  49
2026 06 17 20  10 35 25.102   +17 58 20.43  .04405 1.0001  67.7 23.5 532'  49
2026 06 17 21  10 35 11.117   +18 00 50.09  .04437 0.9999  67.6 23.5 533'  49
2026 06 17 22  10 34 57.320   +18 03 17.56  .04469 0.9997  67.5 23.5 533'  49
2026 06 17 23  10 34 43.707   +18 05 42.90  .04501 0.9995  67.4 23.6 534'  49
2026 06 18 00  10 34 30.275   +18 08 06.15  .04534 0.9994  67.3 23.6 534'  49
2026 06 18 01  10 34 17.020   +18 10 27.36  .04566 0.9992  67.2 23.6 535'  49
2026 06 18 02  10 34 03.938   +18 12 46.56  .04598 0.9990  67.1 23.6 535'  49
2026 06 18 03  10 33 51.025   +18 15 03.81  .04630 0.9988  67.0 23.6 536'  49
2026 06 18 04  10 33 38.278   +18 17 19.15  .04662 0.9986  66.9 23.7 536'  49
2026 06 18 05  10 33 25.694   +18 19 32.61  .04694 0.9984  66.8 23.7 537'  49
2026 06 18 06  10 33 13.269   +18 21 44.23  .04727 0.9982  66.7 23.7 537'  49
2026 06 18 07  10 33 01.001   +18 23 54.06  .04759 0.9981  66.6 23.7 538'  49
2026 06 18 08  10 32 48.885   +18 26 02.13  .04791 0.9979  66.5 23.7 538'  49
2026 06 18 09  10 32 36.920   +18 28 08.47  .04823 0.9977  66.4 23.8 539'  49
2026 06 18 10  10 32 25.101   +18 30 13.13  .04855 0.9975  66.3 23.8 539'  49
2026 06 18 11  10 32 13.427   +18 32 16.13  .04888 0.9973  66.2 23.8 539'  49
2026 06 18 12  10 32 01.894   +18 34 17.51  .04920 0.9971  66.1 23.8 540'  49
2026 06 18 13  10 31 50.499   +18 36 17.30  .04952 0.9969  66.1 23.8 540'  49
2026 06 18 14  10 31 39.241   +18 38 15.53  .04984 0.9967  66.0 23.9 541'  49
2026 06 18 15  10 31 28.115   +18 40 12.24  .05016 0.9966  65.9 23.9 541'  49
2026 06 18 16  10 31 17.120   +18 42 07.46  .05049 0.9964  65.8 23.9 541'  49
2026 06 18 17  10 31 06.254   +18 44 01.20  .05081 0.9962  65.7 23.9 542'  49
2026 06 18 18  10 30 55.513   +18 45 53.51  .05113 0.9960  65.6 23.9 542'  49
2026 06 18 19  10 30 44.896   +18 47 44.41  .05145 0.9958  65.5 23.9 543'  49
2026 06 18 20  10 30 34.399   +18 49 33.93  .05178 0.9956  65.4 24.0 543'  49
2026 06 18 21  10 30 24.022   +18 51 22.09  .05210 0.9954  65.3 24.0 543'  49
2026 06 18 22  10 30 13.761   +18 53 08.92  .05242 0.9952  65.3 24.0 544'  49
2026 06 18 23  10 30 03.615   +18 54 54.44  .05274 0.9950  65.2 24.0 544'  49
2026 06 19 00  10 29 53.581   +18 56 38.69  .05307 0.9948  65.1 24.0 544'  49
2026 06 19 01  10 29 43.657   +18 58 21.67  .05339 0.9947  65.0 24.1 545'  49
2026 06 19 02  10 29 33.842   +19 00 03.42  .05371 0.9945  64.9 24.1 545'  49
2026 06 19 03  10 29 24.133   +19 01 43.97  .05403 0.9943  64.8 24.1 546'  49
2026 06 19 04  10 29 14.529   +19 03 23.32  .05436 0.9941  64.7 24.1 546'  49
2026 06 19 05  10 29 05.027   +19 05 01.50  .05468 0.9939  64.7 24.1 546'  49
2026 06 19 06  10 28 55.626   +19 06 38.55  .05500 0.9937  64.6 24.1 547'  49
2026 06 19 07  10 28 46.324   +19 08 14.46  .05532 0.9935  64.5 24.2 547'  49
2026 06 19 08  10 28 37.119   +19 09 49.27  .05565 0.9933  64.4 24.2 547'  49
2026 06 19 09  10 28 28.009   +19 11 23.00  .05597 0.9931  64.3 24.2 548'  49
2026 06 19 10  10 28 18.994   +19 12 55.66  .05629 0.9929  64.3 24.2 548'  49
2026 06 19 11  10 28 10.070   +19 14 27.27  .05661 0.9927  64.2 24.2 548'  49
2026 06 19 12  10 28 01.237   +19 15 57.85  .05694 0.9925  64.1 24.2 549'  49
2026 06 19 13  10 27 52.494   +19 17 27.43  .05726 0.9923  64.0 24.2 549'  49
2026 06 19 14  10 27 43.837   +19 18 56.01  .05758 0.9921  63.9 24.3 549'  49
2026 06 19 15  10 27 35.267   +19 20 23.61  .05790 0.9919  63.9 24.3 549'  49
2026 06 19 16  10 27 26.781   +19 21 50.26  .05823 0.9917  63.8 24.3 550'  49
2026 06 19 17  10 27 18.379   +19 23 15.96  .05855 0.9915  63.7 24.3 550'  49
2026 06 19 18  10 27 10.058   +19 24 40.74  .05887 0.9913  63.6 24.3 550'  49